Погода в Карджине

Россия / Республика Северная Осетия — Алания     43°15′57″N   44°17′31″E
темп.,
°C
ветер,
м/с
пор.,
м/с
влажн.,
%
обл.,
%
осадки,
мм/ч
давл.,
гПа
погр.,
м
6 мая, чт
чт600:00+7вюв1184100 0.0 101818
03:00+6ююв11870 0.0 101810
06:00+8ююв11820 0.0 101755
09:00+13св22630 0.0 1015687
12:00+17всв33532 0.0 10141244
15:00+19всв335121 0.0 10121332
18:00+16всв466484 0.0 1013230
21:00+10в1272100 0.0 101523
7 мая, пт
пт700:00+9зсз1171100 0.0 101511
03:00+9ссз117799 0.0 101610
06:00+9сз1179100 0.0 101745
09:00+14ссз2267100 0.0 1017370
12:00+19ссз34535 0.0 1017850
15:00+20с33451 0.0 10161158
18:00+18ссв22635 0.0 101736
21:00+12ююв11725 0.0 101910
8 мая, сб
сб800:00+11ююв12805 0.0 101912
03:00+10ююв11820 0.0 101811
06:00+12юв11775 0.0 101836
09:00+18всв23570 0.0 1016646
12:00+22всв435014 0.0 10141287
15:00+22всв444961 0.0 10131378
18:00+20всв3669100 0.0 1012167
21:00+15в228198 0.0 101219
9 мая, вс
вс900:00+13з118844 0.0 101110
03:00+11ю11900 0.0 101011
06:00+13ю0184100 0.0 100935
09:00+19ссз2267100 0.0 1008437
12:00+18с4568100 0.0 1011999
15:00+15ссз81081100 0.7 10141095
18:00+7сз41288100 3.6 10231183
21:00+6ю2693100 6.1 10261005
10 мая, пн
пн1000:00+6ююз4492100 0.8 1026577
03:00+6зюз4587100 1.3 1026456
06:00+6юз348293 0.1 1026593
09:00+10зсз145782 0.3 10241526
12:00+12ю124755 0.0 10221728
15:00+14ююз22435 0.0 10201770
18:00+11с566745 0.1 1020450
21:00+7сз2386100 0.1 1022184